Regional Weather Roundup
Issued by NWS Glasgow, MT

Home | Current Version | Previous Version | Text Only | Print | Product List | Glossary On
Versions: 1 2 3 4 5 6 7 8 9 10 11 12 13 14 15 16 17 18 19 20 21 22 23 24 25 26 27 28 29 30 31 32 33 34 35 36 37 38 39 40 41 42 43 44 45 46 47 48 49 50
000
ASUS45 KGGW 200015
RWRGGW
HOURLY WEATHER ROUNDUP FOR NORTHEAST MONTANA
NATIONAL WEATHER SERVICE GLASGOW MONTANA
500 PM MST FRI DEC 19 2014

NOTE: "FAIR" INDICATES FEW OR NO CLOUDS BELOW 12,000 FEET WITH NO
SIGNIFICANT WEATHER AND/OR OBSTRUCTIONS TO VISISBILITY.

NORTHEAST MONTANA


CITY           SKY/WX    TMP DP  RH WIND       PRES   REMARKS
GLASGOW        CLEAR     28  23  81 E9        29.86R
6HR MIN TEMP:  28; 6HR MAX TEMP:  39;

PLENTYWOOD       N/A     25  25 100 E3          N/A
WOLF POINT     CLEAR     29  24  82 NE5       29.88S
JORDAN           N/A     34  26  72 CALM      29.86S
WINNETT          N/A     37  27  67 S3          N/A
SIDNEY         CLEAR     27  23  86 N6        29.91S
GLENDIVE       CLEAR     34  25  69 SW7       29.90R
MALTA            N/A     31  29  92 E2          N/A
SCOBEY           N/A     25  18  74 CALM      29.85F

FORT PECK REPORTS


CITY           SKY/WX    TMP DP  RH WIND       PRES   REMARKS
FORT PECK        N/A     36  28  73 E3          N/A
THE PINES        N/A     39  29  67 SE2         N/A

SOUTHEAST MONTANA


CITY           SKY/WX    TMP DP  RH WIND       PRES   REMARKS
BILLINGS       CLOUDY    37  20  50 W15       29.85F
MILES CITY     PTCLDY    37  23  56 W3        29.88S
BAKER          CLEAR     30  23  75 CALM      29.90R
LIVINGSTON     MOCLDY    43  24  47 SW25G40   29.85S

CENTRAL MONTANA


CITY           SKY/WX    TMP DP  RH WIND       PRES   REMARKS
HAVRE          CLOUDY    27  24  89 E6        29.78F
LEWISTOWN      MOCLDY    36  25  64 SE5       29.80F
GREAT FALLS    CLOUDY    43  28  55 SW18      29.78S
CUT BANK       CLOUDY    38  30  73 W15       29.74S
HELENA         CLOUDY    37  28  70 CALM      29.87R
BUTTE          CLOUDY    33  29  85 N5        29.91R
BOZEMAN        CLOUDY    33  27  78 SW5       29.91R

WESTERN MONTANA


CITY           SKY/WX    TMP DP  RH WIND       PRES   REMARKS
MISSOULA       MIX PCPN  32  31  96 NW6       29.95R FOG
KALISPELL      NOT AVBL

NORTH DAKOTA


CITY           SKY/WX    TMP DP  RH WIND       PRES   REMARKS
WILLISTON      FOG       23  21  92 N5        29.91S VSB 1/4
DICKINSON      CLEAR     31  23  72 CALM      29.88R
MINOT          CLOUDY    26  24  92 CALM      29.94S FOG
BISMARCK       CLEAR     26  23  88 E5        29.95R

SOUTHERN SASKATCHEWAN


CITY           SKY/WX    TMP DP  RH WIND       PRES   REMARKS
REGINA         CLOUDY    16  14  93 E3        29.92R
ESTEVAN        FOG       19  18  93 E2        29.93S VSB 1/2
SWIFT CURRENT    N/A     25  23  93 S9        29.78S




USA.gov is the U.S. government's official web portal to all federal, state and local government web resources and services.